Volver al catálogo

TIANHUI 7

ActivoCienciaSSO
NORAD 67300·PAYLOAD·🇨🇳 China

Lanzado Dec 30, 2025 desde Jiuquan Satellite Launch Center

Loading…

Próximos Pases (próximas 24 horas)

TLE

ActualizadoSource: Space-Track

Época: Sep 14, 2026, 04:29 UTC

1 67300U 25314A   26257.18721473  .00003987  00000-0  16030-3 0  9996
2 67300  97.3955 331.8620 0005859  83.5736 276.6169 15.25482493 39358

Sigue TIANHUI 7 en tiempo real con AllMySat

Download on the App Store